Regional Weather Roundup
Issued by NWS

Home | Current Version | Previous Version | Graphics & Text | Print | Product List | Glossary On
Versions: 1 2 3 4 5 6 7 8 9 10 11 12 13 14 15 16 17 18 19 20 21 22 23 24 25 26 27
000
ASUS45 KPSR 091610
RWRAZ

ARIZONA HOURLY REGIONAL WEATHER ROUNDUP
NATIONAL WEATHER SERVICE PHOENIX AZ
900 AM MST FRI DEC 09 2016

NOTE: FAIR INDICATES FEW OR NO CLOUDS BELOW 12,000 FEET WITH NO
SIGNIFICANT WEATHER AND/OR OBSTRUCTIONS TO VISIBILITY.

AZZ001>003-036-091700-
NORTHWEST ARIZONA

CITY           SKY/WX    TMP DP  RH WIND       PRES   REMARKS
BULLHEAD CITY  CLOUDY    55  21  26 N17       30.28R
KINGMAN        CLOUDY    45  22  40 CALM      30.28R
$$

AZZ004>008-015-016-018-091700-
NORTH CENTRAL ARIZONA

CITY           SKY/WX    TMP DP  RH WIND       PRES   REMARKS
GRAND CANYON   CLOUDY    35  31  85 CALM      30.33S
WILLIAMS       CLOUDY    32  28  86 S6        30.33S WCI  26
PRESCOTT       MOSUNNY   38  32  79 SW3       30.33R
FLAGSTAFF      PTSUNNY   34  32  92 CALM      30.33S
PAYSON         SUNNY     41  32  70 CALM      30.36S
PAGE           PTSUNNY   34  10  37 SW3       30.34R
$$

AZZ009>014-017-091700-
NORTHEAST ARIZONA

CITY           SKY/WX    TMP DP  RH WIND       PRES   REMARKS
WINSLOW        PTSUNNY   33  24  69 SE8       30.35R WCI  26
SAINT JOHNS    MOSUNNY   34  24  67 CALM      30.35R
WINDOW ROCK    SUNNY     27  20  75 CALM      30.35S
SHOW LOW       SUNNY     41  25  52 S9        30.35R
$$

AZZ023-091700-
GREATER PHOENIX AREA

CITY           SKY/WX    TMP DP  RH WIND       PRES   REMARKS
PHOENIX        MOSUNNY   52  39  61 CALM      30.25R
BUCKEYE        SUNNY     48  37  66 CALM      30.27R
GLENDALE       MOSUNNY   52  39  62 CALM      30.28R
LUKE AFB       SUNNY     52  40  64 NE3       30.25R
DEER VALLEY    SUNNY     55  38  52 NE5       30.25R
SCOTTSDALE     SUNNY     53  39  59 CALM      30.26R
MESA-FALCON    MOSUNNY  N/A N/A N/A N14       30.23
MESA-GATEWAY   MOSUNNY   48  37  66 VRB3      30.26R
CHANDLER       MOSUNNY   48  39  71 CALM      30.26R
$$

AZZ027-028-091700-
SOUTHWEST MARICOPA COUNTY AND PINAL COUNTY

CITY           SKY/WX    TMP DP  RH WIND       PRES   REMARKS
CASA GRANDE    NOT AVBL
GILA BEND      SUNNY     51  35  55 CALM      30.24R
$$

AZZ503-504-507>509-091700-
SOUTHEAST ARIZONA

CITY           SKY/WX    TMP DP  RH WIND       PRES   REMARKS
TUCSON         SUNNY     48  32  53 SE8       30.28R
DAVIS-MONTHAN  SUNNY     54  34  46 VRB6      30.26S
RYAN FIELD     SUNNY     45  36  70 CALM      30.28R
NOGALES        SUNNY     47  31  53 CALM      30.28R
SIERRA VISTA   SUNNY     45  32  62 CALM      30.33R
DOUGLAS        SUNNY     40  33  76 N3        30.33R
SAFFORD        SUNNY     41  30  65 SE13      30.37R
$$

AZZ020-021-025-026-031-091700-
SOUTHWEST ARIZONA

CITY           SKY/WX    TMP DP  RH WIND       PRES   REMARKS
YUMA           PTSUNNY   54  21  27 N8        30.24R
$$

CAZ031-033-041-043-047-048-061-091700-
SOUTHERN CALIFORNIA

CITY           SKY/WX    TMP DP  RH WIND       PRES   REMARKS
DOWNTOWN L.A.  NOT AVBL
L.A. AIRPORT   PTSUNNY   56  50  80 VRB3      30.26R
SAN DIEGO      PTSUNNY   55  47  74 CALM      30.28R
BURBANK        MOSUNNY   51  43  74 CALM      30.25R
ONTARIO        CLOUDY    50  42  74 E3        30.26R
RIVERSIDE      PTSUNNY   48  44  86 NE3       30.27R
PALM SPRINGS   MOSUNNY   52  36  54 VRB3      30.26R
EL CENTRO NAS  PTSUNNY   48  24  39 SW5       30.26R
IMPERIAL       MOSUNNY   49  29  46 SW5       30.25R
BLYTHE         PTSUNNY   50  12  21 W7        30.26R
NEEDLES        CLOUDY    55  17  22 NW5       30.29R
$$

NVZ020-UTZ003-091700-
SOUTHERN NEVADA-UTAH

CITY           SKY/WX    TMP DP  RH WIND       PRES   REMARKS
LAS VEGAS      CLOUDY    48  11  22 CALM      30.30R
SALT LAKE CITY CLOUDY    33  29  85 W5        30.20R WCI  29
$$

NMZ009-TXZ055-091700-
NEW MEXICO-WEST TEXAS

CITY           SKY/WX    TMP DP  RH WIND       PRES   REMARKS
ALBUQUERQUE    MOSUNNY   28  20  71 CALM      30.40R
EL PASO        CLOUDY    34  28  79 E5        30.44R WCI  30
$$


........................KEY........................
SKY/WX - SKY CONDITION/WEATHER
TMP    - TEMPERATURE IN FAHRENHEIT
DP     - DEW POINT IN FAHRENHEIT
RH     - RELATIVE HUMIDITY IN PERCENT
WIND   - DIRECTION AND SPEED IN MILES PER HOUR (MPH)
VRB    - VARIABLE WIND DIRECTION
PRES   - MEAN SEA LEVEL PRESSURE IN INCHES OF MERCURY
         F - FALLING PRESSURE   R - RISING PRESSURE
         S - STEADY PRESSURE
VSB    - VISIBILITY IN MILES
HX     - HEAT INDEX IN FAHRENHEIT
WCI    - WIND CHILL INDEX IN FAHRENHEIT
TC     - TEMPERATURE IN CELSIUS WHICH IS ALSO KNOWN AS
         TEMPERATURE IN CENTIGRADE
AFB    - AIR FORCE BASE
         LUKE AFB IS LUKE AIR FORCE BASE
         DAVIS-MONTHAN IS DAVIS-MONTHAN AIR FORCE BASE
NAS    - NAVAL AIR STATION
         EL CENTRO NAS IS EL CENTRO NAVAL AIR STATION
N/A    - NOT AVAILABLE





USA.gov is the U.S. government's official web portal to all federal, state and local government web resources and services.